Tracking 27380 objects as of 6-Jun-2023
HD Live streaming from Space Station
objects crossing your sky now

OPS 4682 DEB

Track OPS 4682 DEB now!
10-day predictions


NORAD ID: 38400
Int'l Code: 1965-027DD
Perigee: 1,252.1 km
Apogee: 1,304.0 km
Inclination: 90.2 °
Period: 111.0 minutes
Semi major axis: 7649 km
RCS: 0.0087 m2 (small)
Launch date: April 3, 1965
Source: United States (US)
Launch site: AIR FORCE WESTERN TEST RANGE (AFWTR)

Note: This is SATELLITE DEBRIS
Your satellite tracking list
Your tracking list is empty




NASA's NSSDC Master Catalog

Two Line Element Set (TLE):
1 38400U 65027DD  23155.49306065 -.00000168  00000-0 -60053-3 0  9998
2 38400  90.2459 352.0506 0033884  46.2644 314.1273 12.97755710960616
Source of the keplerian elements: AFSPC